(240710) = 2005 GZ89 = 2000 EW72

Discovered at Kitt Peak on 2005-04-05 by Spacewatch.

Orbit

Orbit type: Main Belt

Note: WebGL enabled browser required.

epoch2023-09-13.0
epoch JD2460200.5
perihelion date2023-03-15.67129
perihelion JD2460019.17129
argument of perihelion (°)159.91267
ascending node (°)152.67540
inclination (°)4.53368
eccentricity0.1050704
perihelion distance (AU)2.3438504
Tisserand w.r.t. Jupiter3.4
ΔV w.r.t. Earth (km/sec)9.7
semimajor axis (AU)2.6190332
mean anomaly (°)42.16566
mean daily motion (°/day)0.23253710
aphelion distance (AU)2.894
period (years)4.24
P-vector [x]0.67721595
P-vector [y]-0.68540819
P-vector [z]-0.26757089
Q-vector [x]0.73488912
Q-vector [y]0.64801532
Q-vector [z]0.20003531
absolute magnitude16.64
phase slope0.15
uncertainty0
referenceMPO 778705
observations used362
oppositions17
arc length (days)8647
first opposition used2000
last opposition used2023
residual rms (arc-secs)0.75
perturbers coarse indicatorM-v
perturbers precise indicator003Ek
first observation date used2000-03-10.0
last observation date used2023-11-12.0
computer nameMPCLINUX
JD of orbit computation2456937.557424
perihelion JD uncertainty (days)1.1889E-04
argument of perihelion uncertainty (°)7.3886E-05
ascending node uncertainty (°)6.7250E-05
inclination uncertainty (°)7.0989E-06
eccentricity uncertainty 5.9252E-08
perihelion distance uncertainty (AU)1.5610E-07
Minimum Orbit Intersection Distances (in AU)
for orbit epoch: 2460200.5, reference: E2023-VN0
Mercury1.91445
Venus1.61867
Earth1.32985
Mars0.95279
Jupiter2.33161
Saturn6.21692
Uranus15.5879
Neptune27.2136

Observations

368 total observations over interval: 2000 03 10.19285 – 2023 11 12.339024
These data are available for download (format description).

Date (UT) J2000 RA J2000 Dec Magn Location Ref
2000 03 10.19285 09 48 20.04 +13 18 04.0 20.9 V 691 – Steward Observatory, Kitt Peak-Spacewatch MPS 11457
2000 03 10.21423 09 48 19.09 +13 18 10.9 21.3 V 691 – Steward Observatory, Kitt Peak-Spacewatch MPS 11457
2000 03 10.23602 09 48 18.16 +13 18 17.3 21.1 V 691 – Steward Observatory, Kitt Peak-Spacewatch MPS 11457
2000 03 12.18337 09 46 59.17 +13 27 50.6 20.8 V 691 – Steward Observatory, Kitt Peak-Spacewatch MPS 11457
2000 03 12.20474 09 46 58.27 +13 27 56.5 20.2 V 691 – Steward Observatory, Kitt Peak-Spacewatch MPS 11457
2000 03 12.22616 09 46 57.42 +13 28 02.4 20.7 V 691 – Steward Observatory, Kitt Peak-Spacewatch MPS 11457
2004 02 14.13632 08 29 32.12 +16 31 49.6 20.9 V 691 – Steward Observatory, Kitt Peak-Spacewatch MPS 178512
2004 02 14.16334 08 29 30.80 +16 31 57.0 21.1 V 691 – Steward Observatory, Kitt Peak-Spacewatch MPS 178512
2004 02 14.19047 08 29 29.43 +16 32 04.3 21.5 V 691 – Steward Observatory, Kitt Peak-Spacewatch MPS 178512
2005 04 05.42998 15 10 58.53 -11 22 30.7 21.0 V 691 – Steward Observatory, Kitt Peak-Spacewatch MPS 131852
2005 04 05.44746 15 10 58.04 -11 22 26.0 20.7 V 691 – Steward Observatory, Kitt Peak-Spacewatch MPS 131852
2005 04 05.46532 15 10 57.60 -11 22 21.0 21.4 V 691 – Steward Observatory, Kitt Peak-Spacewatch MPS 131852
2005 04 11.43765 15 07 52.95 -10 55 21.1 20.8 V 691 – Steward Observatory, Kitt Peak-Spacewatch MPS 131852
2005 04 11.45513 15 07 52.25 -10 55 16.1 20.7 V 691 – Steward Observatory, Kitt Peak-Spacewatch MPS 131852
2005 04 11.47251 15 07 51.64 -10 55 11.2 21.1 V 691 – Steward Observatory, Kitt Peak-Spacewatch MPS 131852
2005 04 15.44631 15 05 22.23 -10 36 03.3 20.4 V 691 – Steward Observatory, Kitt Peak-Spacewatch MPS 139668
2005 04 15.46475 15 05 21.46 -10 35 57.6 20.4 V 691 – Steward Observatory, Kitt Peak-Spacewatch MPS 139668
2005 04 15.48321 15 05 20.68 -10 35 52.8 20.1 V 691 – Steward Observatory, Kitt Peak-Spacewatch MPS 139668
2005 04 30.26542 14 53 48.86 -09 21 32.6 20.1 V 691 – Steward Observatory, Kitt Peak-Spacewatch MPS 139668
2005 04 30.28327 14 53 47.89 -09 21 27.7 20.0 V 691 – Steward Observatory, Kitt Peak-Spacewatch MPS 139668
2005 04 30.30103 14 53 46.95 -09 21 22.6 20.0 V 691 – Steward Observatory, Kitt Peak-Spacewatch MPS 139668
2006 08 27.32517 00 33 37.31 +00 43 08.7 21.4   705 – Apache Point MPS 195521
2006 08 27.32601 00 33 37.28 +00 43 08.5 20.6 V 705 – Apache Point MPS 195522
2006 08 28.31833 00 33 13.77 +00 37 47.0 20.6   705 – Apache Point MPS 195522
2006 08 28.31917 00 33 13.75 +00 37 46.7 20.0 V 705 – Apache Point MPS 195522
2006 09 11.32287 00 25 23.26 -00 51 21.9 20.5   705 – Apache Point MPS 195522
2006 09 11.32369 00 25 23.23 -00 51 22.2 19.9 V 705 – Apache Point MPS 195522
2006 09 26.22355 00 13 56.47 -02 39 42.4 19.1   704 – Lincoln Laboratory ETS, New Mexico MPS 181085
2006 09 26.23544 00 13 55.84 -02 39 46.9 19.3   704 – Lincoln Laboratory ETS, New Mexico MPS 181085
2006 09 26.24731 00 13 55.31 -02 39 51.5 20.3   704 – Lincoln Laboratory ETS, New Mexico MPS 181085
2006 09 26.25928 00 13 54.74 -02 39 55.3 19.7   704 – Lincoln Laboratory ETS, New Mexico MPS 181085
2006 09 26.27115 00 13 54.11 -02 40 02.4 19.3   704 – Lincoln Laboratory ETS, New Mexico MPS 181085
2006 09 30.24866 00 10 43.35 -03 07 52.9 19.6 V 703 – Catalina Sky Survey MPS 182710
2006 09 30.25840 00 10 42.85 -03 07 55.8 19.3 V 703 – Catalina Sky Survey MPS 182710
2006 09 30.26816 00 10 42.27 -03 08 00.1 19.6 V 703 – Catalina Sky Survey MPS 182710
2006 09 30.27643 00 10 41.91 -03 08 05.3 19.4 V G96 – Mt. Lemmon Survey MPS 182710
2006 09 30.27792 00 10 41.88 -03 08 03.9 19.5 V 703 – Catalina Sky Survey MPS 182710
2006 09 30.28552 00 10 41.44 -03 08 09.1 19.6 V G96 – Mt. Lemmon Survey MPS 182710
2006 09 30.29463 00 10 40.98 -03 08 12.8 19.6 V G96 – Mt. Lemmon Survey MPS 182710
2006 09 30.30395 00 10 40.51 -03 08 16.6 19.6 V G96 – Mt. Lemmon Survey MPS 182710
2006 09 30.32693 00 10 39.39 -03 08 25.6 19.4 V 703 – Catalina Sky Survey MPS 182710
2006 09 30.33885 00 10 38.78 -03 08 30.6 19.1 V 703 – Catalina Sky Survey MPS 182710
2006 09 30.35081 00 10 38.24 -03 08 36.0 19.1 V 703 – Catalina Sky Survey MPS 182710
2006 09 30.36277 00 10 37.59 -03 08 40.4 19.2 V 703 – Catalina Sky Survey MPS 182710
2006 10 16.17696 23 59 28.17 -04 40 27.7 19.9 V 703 – Catalina Sky Survey MPS 182966
2006 10 16.18458 23 59 27.88 -04 40 30.0 20.1 V 703 – Catalina Sky Survey MPS 182966
2006 10 16.19219 23 59 27.52 -04 40 33.2 20.1 V 703 – Catalina Sky Survey MPS 182966
2006 10 16.19979 23 59 27.38 -04 40 33.4 20.1 V 703 – Catalina Sky Survey MPS 182966
2006 11 23.15987 23 54 47.16 -05 10 13.7 21.0 V G96 – Mt. Lemmon Survey MPS 188693
2006 11 23.16719 23 54 47.30 -05 10 12.5 21.1 V G96 – Mt. Lemmon Survey MPS 188693
2006 11 23.17443 23 54 47.44 -05 10 11.2 20.9 V G96 – Mt. Lemmon Survey MPS 188693
2006 11 23.18183 23 54 47.59 -05 10 09.8 20.7 V G96 – Mt. Lemmon Survey MPS 188693
2007 12 06.46691 07 45 02.36 +16 14 18.8 21.8 V 691 – Steward Observatory, Kitt Peak-Spacewatch MPS 229820
2007 12 06.48456 07 45 01.90 +16 14 19.6 21.2 V 691 – Steward Observatory, Kitt Peak-Spacewatch MPS 229820
2007 12 06.50220 07 45 01.37 +16 14 19.6 21.1 V 691 – Steward Observatory, Kitt Peak-Spacewatch MPS 229820
2008 01 11.28576 07 16 18.62 +17 27 07.7 20.1 V G96 – Mt. Lemmon Survey MPS 233401
2008 01 11.29182 07 16 18.30 +17 27 08.4 20.3 V G96 – Mt. Lemmon Survey MPS 233401
2008 01 11.29788 07 16 17.90 +17 27 09.5 20.6 V G96 – Mt. Lemmon Survey MPS 233401
2008 01 11.30398 07 16 17.50 +17 27 10.9 20.2 V G96 – Mt. Lemmon Survey MPS 233401
2009 03 16.28450 13 27 43.85 -04 27 31.9 20.4 V 691 – Steward Observatory, Kitt Peak-Spacewatch MPS 280079
2009 03 16.30262 13 27 43.26 -04 27 25.7 20.4 V 691 – Steward Observatory, Kitt Peak-Spacewatch MPS 280079
2009 03 16.32074 13 27 42.59 -04 27 19.6 20.8 V 691 – Steward Observatory, Kitt Peak-Spacewatch MPS 280079
2010 05 16.830719 21 48 53.60 -10 20 54.3   C51 – WISE MPS 328580
2010 05 16.963023 21 49 02.686 -10 20 11.87   C51 – WISE MPS 903679
2010 05 17.095326 21 49 11.81 -10 19 26.0   C51 – WISE MPS 328580
2010 05 17.22763 21 49 20.69 -10 18 42.8   C51 – WISE MPS 328580
2010 05 17.492238 21 49 38.87 -10 17 13.7   C51 – WISE MPS 328580
2010 05 17.82306 21 50 01.24 -10 15 22.4   C51 – WISE MPS 328580
2010 05 17.955366 21 50 10.25 -10 14 39.7   C51 – WISE MPS 328580
2010 06 10.41694 22 11 52.58 -08 28 57.6 21.7 V G96 – Mt. Lemmon Survey MPS 331875
2010 06 10.42168 22 11 52.76 -08 28 56.3 21.1 V G96 – Mt. Lemmon Survey MPS 331875
2010 06 10.42641 22 11 52.98 -08 28 55.5 20.5 V G96 – Mt. Lemmon Survey MPS 331875
2010 06 10.43120 22 11 53.16 -08 28 54.1 20.7 V G96 – Mt. Lemmon Survey MPS 331875
2010 08 19.99993 22 01 40.18 -11 19 59.4 18.3 V J75 – OAM Observatory, La Sagra MPS 346185
2010 08 20.00203 22 01 40.14 -11 20 00.4 18.7 V J75 – OAM Observatory, La Sagra MPS 346185
2010 08 20.01281 22 01 39.56 -11 20 04.7 18.1 V J75 – OAM Observatory, La Sagra MPS 346185
2010 08 20.01492 22 01 39.45 -11 20 05.7 18.3 V J75 – OAM Observatory, La Sagra MPS 346185
2010 08 20.02569 22 01 38.91 -11 20 09.9 18.5 V J75 – OAM Observatory, La Sagra MPS 346185
2010 08 20.02779 22 01 38.82 -11 20 11.0 18.8 V J75 – OAM Observatory, La Sagra MPS 346185
2010 09 01.30251 21 52 00.77 -12 42 50.9 19.2   704 – Lincoln Laboratory ETS, New Mexico MPS 347023
2010 09 01.31424 21 52 00.26 -12 42 55.4 20.0   704 – Lincoln Laboratory ETS, New Mexico MPS 347023
2010 09 01.33730 21 51 59.24 -12 43 04.3 19.7   704 – Lincoln Laboratory ETS, New Mexico MPS 347023
2010 09 01.34925 21 51 58.70 -12 43 08.9 19.9   704 – Lincoln Laboratory ETS, New Mexico MPS 347023
2010 09 05.292253 21 49 11.346 -13 07 36.27 20.07 g F51 – Pan-STARRS 1, Haleakala MPS 366722
2010 09 05.303835 21 49 10.843 -13 07 40.54 20.14 g F51 – Pan-STARRS 1, Haleakala MPS 366722
2010 09 05.84885 21 48 48.82 -13 10 56.2 18.8 V J75 – OAM Observatory, La Sagra MPS 347830
2010 09 05.86174 21 48 48.28 -13 11 01.9 19.6 V J75 – OAM Observatory, La Sagra MPS 347830
2010 09 05.87466 21 48 47.75 -13 11 06.4 19.5 V J75 – OAM Observatory, La Sagra MPS 347830
2011 11 29.34436 06 07 30.15 +17 03 35.5   691 – Steward Observatory, Kitt Peak-Spacewatch MPS 403687
